User: anonymous   Login
Location: Bangkok
(13.7500°N, 100.5170°E)
Time: 15:07:19
(UTC+07:00)
Language:

ERBS - Orbit

View from above orbital plane
View from above orbital plane
View from above satellite
View from above satellite

Ground track
Ground track

The orbit data is extracted from the following two-line orbital elements,

1 15354U 84108B   16038.57302210  .00007262  00000-0  19309-3 0  9999
2 15354  57.0104 106.0946 0007710 228.0821 131.9576 15.39317404721763
Epoch (UTC): 07 February 2016 13:45:09
Eccentricity: 0.0007710
inclination: 57.0104°
perigee height: 443 km
apogee height: 453 km
right ascension of ascending node: 106.0946°
argument of perigee: 228.0821°
revolutions per day: 15.39317404
mean anomaly at epoch: 131.9576°
orbit number at epoch: 72176

The dashed part of the orbit path shows where the satellite is in the earth's shadow,  

DLR